QTR21D OTHH-OERK

Flight info

Callsign QTR21D
Flight time N/A
Altitude 38000
Route ULIKA M430 SALWA V975 HSA M430 KIREN V975 GOLNO
Aircraft B77W/H-SDE1E2E3FGHIJ2J3J4J5M1RWXY/LB1D1

Departure

Time N/A
Airport Hamad International Airport (OTHH)

Arrival

Time 2026-05-01 11:36
Airport King Khalid International Airport (OERK)
Time Latitude Longitude Altitude Speed Heading
2026-05-01 11:17 25.51499 46.44741 4116 ft 275 kts 236°
2026-05-01 11:17 25.50526 46.42953 4091 ft 267 kts 235°
2026-05-01 11:18 25.49300 46.41457 4011 ft 259 kts 209°
2026-05-01 11:18 25.47642 46.40938 3999 ft 245 kts 172°
2026-05-01 11:18 25.46054 46.41529 4023 ft 243 kts 151°
2026-05-01 11:18 25.44520 46.42445 4020 ft 257 kts 150°
2026-05-01 11:19 25.42928 46.43398 4006 ft 260 kts 151°
2026-05-01 11:19 25.41332 46.44340 4010 ft 260 kts 151°
2026-05-01 11:19 25.39720 46.45272 4024 ft 263 kts 151°
2026-05-01 11:19 25.38084 46.46207 4004 ft 266 kts 151°
2026-05-01 11:20 25.36457 46.47126 4012 ft 266 kts 152°
2026-05-01 11:20 25.34813 46.48048 4015 ft 263 kts 152°
2026-05-01 11:20 25.33187 46.48957 4008 ft 260 kts 153°
2026-05-01 11:20 25.31581 46.49851 4011 ft 257 kts 152°
2026-05-01 11:21 25.29977 46.50744 4029 ft 260 kts 152°
2026-05-01 11:21 25.28360 46.51636 4028 ft 259 kts 152°
2026-05-01 11:21 25.26744 46.52529 4025 ft 258 kts 152°
2026-05-01 11:21 25.25138 46.53416 3995 ft 257 kts 152°
2026-05-01 11:22 25.23540 46.54299 4011 ft 257 kts 152°
2026-05-01 11:22 25.21929 46.55189 4013 ft 260 kts 152°
2026-05-01 11:22 25.20299 46.56074 4013 ft 262 kts 153°
2026-05-01 11:22 25.18667 46.56926 4001 ft 262 kts 152°
2026-05-01 11:23 25.17081 46.57863 3996 ft 255 kts 149°
2026-05-01 11:23 25.15560 46.58827 3996 ft 249 kts 148°
2026-05-01 11:23 25.14073 46.59780 4000 ft 245 kts 148°
2026-05-01 11:23 25.12596 46.60721 4012 ft 246 kts 148°
2026-05-01 11:24 25.11133 46.61652 4002 ft 238 kts 148°
2026-05-01 11:24 25.09728 46.62547 4000 ft 226 kts 148°
2026-05-01 11:24 25.07195 46.64157 4022 ft 199 kts 148°
2026-05-01 11:25 25.06052 46.64883 3880 ft 183 kts 148°
2026-05-01 11:25 25.03897 46.66258 3428 ft 167 kts 148°
2026-05-01 11:25 25.02957 46.66852 3250 ft 152 kts 147°
2026-05-01 11:26 25.02039 46.67438 3051 ft 153 kts 147°
2026-05-01 11:26 25.00140 46.68635 2739 ft 161 kts 147°
2026-05-01 11:26 24.99156 46.69263 2508 ft 163 kts 145°
2026-05-01 11:27 24.98237 46.69854 2580 ft 155 kts 146°
2026-05-01 11:27 24.97289 46.70492 3536 ft 165 kts 145°
2026-05-01 11:27 24.96499 46.71497 4372 ft 196 kts 109°
2026-05-01 11:27 24.96557 46.73082 4428 ft 225 kts 71°
2026-05-01 11:28 24.97534 46.74527 4138 ft 247 kts 41°
2026-05-01 11:28 24.99100 46.75389 3748 ft 260 kts 16°
2026-05-01 11:28 25.00878 46.75421 3816 ft 259 kts 349°
2026-05-01 11:29 25.04417 46.74029 3850 ft 284 kts 340°
2026-05-01 11:29 25.06249 46.73263 3899 ft 278 kts 340°
2026-05-01 11:29 25.09738 46.71763 3970 ft 263 kts 340°
2026-05-01 11:30 25.11454 46.71016 3995 ft 267 kts 340°
2026-05-01 11:30 25.13181 46.70204 4009 ft 273 kts 335°
2026-05-01 11:30 25.14821 46.69212 3986 ft 262 kts 322°
2026-05-01 11:30 25.15920 46.67707 4024 ft 245 kts 291°
2026-05-01 11:31 25.16156 46.65912 4011 ft 233 kts 259°
2026-05-01 11:31 25.15550 46.64362 4020 ft 213 kts 229°
2026-05-01 11:31 25.14579 46.63151 3999 ft 209 kts 218°
2026-05-01 11:31 25.13338 46.62313 4009 ft 209 kts 199°
2026-05-01 11:32 25.11951 46.61934 3993 ft 207 kts 176°
2026-05-01 11:32 25.10627 46.62314 3999 ft 191 kts 155°
2026-05-01 11:32 25.09421 46.62876 4023 ft 185 kts 154°
2026-05-01 11:32 25.08277 46.63492 4008 ft 181 kts 149°
2026-05-01 11:33 25.07186 46.64164 4030 ft 176 kts 148°
2026-05-01 11:33 25.06167 46.64811 3885 ft 164 kts 148°
2026-05-01 11:33 25.05225 46.65410 3705 ft 149 kts 147°
2026-05-01 11:33 25.04365 46.65959 3523 ft 138 kts 147°
2026-05-01 11:34 25.03526 46.66506 3342 ft 144 kts 146°
2026-05-01 11:34 25.02675 46.67051 3182 ft 144 kts 147°
2026-05-01 11:34 25.01803 46.67602 2989 ft 145 kts 147°
2026-05-01 11:34 25.00927 46.68155 2795 ft 146 kts 148°
2026-05-01 11:35 25.00030 46.68711 2676 ft 150 kts 144°
2026-05-01 11:35 24.99151 46.69281 2460 ft 152 kts 147°
2026-05-01 11:35 24.98239 46.69845 2222 ft 147 kts 148°
2026-05-01 11:35 24.97375 46.70398 2089 ft 140 kts 149°
2026-05-01 11:36 24.96611 46.70884 2078 ft 109 kts 150°
2026-05-01 11:36 24.96092 46.71213 2081 ft 67 kts 150°
2026-05-01 11:36 24.95754 46.71392 2081 ft 36 kts 163°
2026-05-01 11:36 24.95528 46.71390 2077 ft 31 kts 207°
2026-05-01 11:37 24.95406 46.71206 2079 ft 30 kts 242°
2026-05-01 11:37 24.95307 46.71016 2079 ft 24 kts 240°